Weather History for Covington, KY

Change the Weather History Date:

Saturday, December 22, 2012

  Actual Average Record
Temperature  
Mean Temperature 29 °F 32 °F  
Max Temperature 34 °F 40 °F 64 °F (1941)
Min Temperature 23 °F 25 °F -20 °F (1989)
Degree Days  
Heating Degree Days 36 33  
Month to date heating degree days 458 658  
Since 1 July heating degree days 1564 1618  
Cooling Degree Days 0 0  
Month to date cooling degree days 0 0  
Year to date cooling degree days 1439 1121  
Moisture  
Dew Point 20 °F    
Average Humidity 72    
Maximum Humidity 88    
Minimum Humidity 56    
Precipitation  
Precipitation 0.00 in 0.11 in 1.24 in (1879)
Month to date precipitation 4.60 2.38  
Year to date precipitation 37.63 41.53  
Snow  
Snow 0.00 in 0.20 in 4.50 in (1916)
Month to date snowfall 0.9 3.0  
Since 1 July snowfall 0.9 3.8  
Snow Depth 1.00 in    
Sea Level Pressure  
Sea Level Pressure 30.19 in    
Wind  
Wind Speed 10 mph (SW)    
Max Wind Speed 21 mph    
Max Gust Speed 24 mph    
Visibility 10 miles    
Events      
T = Trace of Precipitation, MM = Missing Value Source: NWS Daily Summary

Daily Weather History Graph

Daily Weather History Graph

Search for Another Location

Airport:

Trip Planner

Search our weather history database for the weather conditions in past years. The results will help you decide how hot, cold, wet, or windy it might be!

Date:

Astronomy

Dec. 22, 2012 Rise Set
Actual Time 7:54 AM EST 5:20 PM EST
Civil Twilight 7:24 AM EST 5:50 PM EST
Nautical Twilight 6:51 AM EST 6:24 PM EST
Astronomical Twilight 6:18 AM EST 6:56 PM EST
Moon 1:36 PM EST 2:40 AM EST
Length of Visible Light 10h 25m
Length of Day
9h 25m
Waxing Gibbous, 73% of the Moon is Illuminated
Dec 22
Waxing Gibbous
Dec 28
Full
Jan 4
Last Quarter
Jan 11
New
Jan 18
First Quarter

Hourly Weather History & Observations

Time (EST) Temp. Windchill Dew Point Humidity Pressure Visibility Wind Dir Wind Speed Gust Speed Precip Events Conditions
12:52 AM 27.0 °F 15.2 °F 21.0 °F 78% 30.12 in 10.0 mi West 15.0 mph 24.2 mph N/A   Overcast
1:52 AM 27.0 °F 15.6 °F 21.0 °F 78% 30.14 in 10.0 mi West 13.8 mph - N/A   Overcast
2:52 AM 27.0 °F 14.7 °F 21.0 °F 78% 30.17 in 10.0 mi West 16.1 mph - N/A   Overcast
3:52 AM 26.6 °F 15.2 °F 21.2 °F 80% 30.15 in 10.0 mi West 13.8 mph - N/A   Overcast
4:52 AM 26.1 °F 15.0 °F 21.0 °F 81% 30.18 in 10.0 mi West 12.7 mph - N/A   Overcast
5:52 AM 26.1 °F 16.2 °F 19.9 °F 78% 30.19 in 10.0 mi West 10.4 mph - N/A   Overcast
6:52 AM 24.8 °F 16.1 °F 19.4 °F 80% 30.19 in 10.0 mi West 8.1 mph - N/A   Overcast
7:52 AM 25.0 °F 14.2 °F 19.9 °F 81% 30.23 in 10.0 mi WSW 11.5 mph - N/A   Overcast
8:52 AM 23.0 °F 10.1 °F 19.0 °F 85% 30.26 in 10.0 mi West 15.0 mph - N/A   Mostly Cloudy
9:52 AM 23.0 °F 10.6 °F 19.0 °F 85% 30.29 in 10.0 mi West 13.8 mph - N/A   Overcast
10:46 AM 24.8 °F 15.3 °F 19.4 °F 80% 30.25 in 10.0 mi West 9.2 mph - N/A   Scattered Clouds
10:52 AM 26.1 °F 16.8 °F 19.0 °F 75% 30.27 in 10.0 mi WSW 9.2 mph - N/A   Scattered Clouds
11:52 AM 28.0 °F 18.6 °F 19.9 °F 72% 30.26 in 10.0 mi WSW 10.4 mph - N/A   Scattered Clouds
12:52 PM 30.0 °F 21.1 °F 21.0 °F 69% 30.23 in 10.0 mi WSW 10.4 mph - N/A   Scattered Clouds
1:52 PM 33.1 °F 23.9 °F 21.0 °F 61% 30.21 in 10.0 mi West 12.7 mph 16.1 mph N/A   Scattered Clouds
2:52 PM 34.0 °F 27.2 °F 21.0 °F 59% 30.19 in 10.0 mi West 8.1 mph - N/A   Scattered Clouds
3:52 PM 34.0 °F 27.2 °F 19.9 °F 56% 30.18 in 10.0 mi SSW 8.1 mph - N/A   Scattered Clouds
4:52 PM 33.1 °F 27.7 °F 21.0 °F 61% 30.17 in 10.0 mi SSW 5.8 mph - N/A   Partly Cloudy
5:52 PM 30.0 °F 23.2 °F 21.0 °F 69% 30.17 in 10.0 mi SSW 6.9 mph - N/A   Partly Cloudy
6:52 PM 30.0 °F 25.2 °F 21.0 °F 69% 30.18 in 10.0 mi SSW 4.6 mph - N/A   Partly Cloudy
7:52 PM 28.9 °F 23.9 °F 21.0 °F 72% 30.15 in 10.0 mi SSW 4.6 mph - N/A   Partly Cloudy
8:52 PM 27.0 °F 21.6 °F 21.0 °F 78% 30.13 in 10.0 mi South 4.6 mph - N/A   Partly Cloudy
9:52 PM 26.1 °F 17.6 °F 21.0 °F 81% 30.12 in 10.0 mi South 8.1 mph - N/A   Partly Cloudy
10:52 PM 26.1 °F 19.4 °F 19.9 °F 78% 30.10 in 10.0 mi South 5.8 mph - N/A   Partly Cloudy
11:52 PM 25.0 °F 19.3 °F 19.0 °F 78% 30.10 in 10.0 mi South 4.6 mph - N/A   Clear